F1PPH-1 Weather Reports


time (UTC)temp
C
wind
direction
speed
KPH
gust
KPH
rain 1hr
cm
rain 24hr
cm
rain mn
cm
humidity
%
barometer
mb
20260507130003 30 0.0 0.0 0.00 0.00 0.00 49 1008.3
20260507120619 30 0.0 0.0 0.00 0.00 0.00 51 1008.8
20260507111822 28 0.0 0.0 0.00 0.00 0.00 54 1009.1
20260507103020 25 0.0 0.0 0.00 0.00 0.00 56 1009.4
20260507094219 22 0.0 0.0 0.00 0.00 0.00 59 1009.6
20260507084220 18 0.0 0.0 0.00 0.00 0.00 62 1009.5
20260507074224 14 0.0 0.0 0.00 0.00 0.00 63 1009.5
20260507060036 11 0.0 0.0 0.00 0.00 0.00 63 1009.3
20260507050031 10 0.0 0.0 0.00 0.00 0.00 63 1008.9
20260507031210 11 0.0 0.0 0.00 0.00 0.00 62 1008.4
20260507021210 11 0.0 0.0 0.00 0.00 0.00 62 1008.4
20260507011211 12 0.0 0.0 0.00 0.00 0.00 62 1008.3
20260507001209 12 0.0 0.0 0.00 0.00 0.00 62 1008.4
20260506231210 13 0.0 0.0 0.00 0.00 0.00 61 1008.2
20260506221209 14 0.0 0.0 0.00 0.00 0.00 61 1008.0
20260506211211 15 0.0 0.0 0.00 0.00 0.00 61 1007.7
20260506201208 15 0.0 0.0 0.00 0.00 0.00 61 1007.1
20260506191208 16 0.0 0.0 0.00 0.00 0.00 60 1006.4
20260506181208 18 0.0 0.0 0.00 0.00 0.00 60 1006.1
20260506161225 18 0.0 0.0 0.00 0.00 0.00 60 1005.6
20260506152408 19 0.0 0.0 0.00 0.00 0.00 59 1005.7
20260506143607 23 0.0 0.0 0.00 0.00 0.00 58 1005.5
20260506134807 22 0.0 0.0 0.00 0.00 0.00 60 1005.5